ONEWEB-0692, 61600

Orbit data source: Space-Track

ONEWEB-0692, 61600 is a payload satellite owned by Eut. One Web (UK) in LEO that was launched on Sun, 20 Oct 2024 UTC via an FALCON 9 launch vehicle from the Air Force Western Test Range (AFWTR). Payload-class satellites include a variety of spacecraft equipped with specific instruments for various scientific and technological missions. These include communications satellites like Starlink; space stations such as the ISS; scientific satellites like the Hubble; Earth observation satellites from companies like Planet Labs, Umbra, and HawkEye 360; GPS; miniature CubeSats for education and research; and military/defense satellites.

Loading next visibility...
Identifier
61600, 2024-188G
Orbit
LEO
Last TLE update
15 hours ago
Origin
Manufacturer
One Web
Mission
Operational Commercial Communications
Bus & Motor
ARROW, Unknown motor
Mass
148 kg wet, ~140 kg dry
Launch date (UTC)
2024-10-20 (8 months ago)
Launch vehicle
FALCON 9
Launch site
Air Force Western Test Range (AFWTR)
Object type
Payload
Rocket body
Debris
Shape & HBR
Trap Box + 2 Pan, 5 m
Radar Cross Section
2.032 m², Large (>1 m²)

Expand to show TLE details & history

TLE from 15 hours ago
0 ONEWEB-0692
1 61600U 24188G   25181.79328059 -.00000062  00000-0 -20943-3 0  9997
2 61600  87.8831  91.1493 0002803  68.3257 291.8170 13.11420034 38414
Epoch: 2025-06-30T19:02Z
TLE epoch observation values (Epoch: 2025-06-30T19:02:19.442Z)
Latitude
0.00003°
Longitude
-113.5297°
Altitude
1,219.769 km
Speed
7.245 km/s
True Right ascension
06h 04m 35s
True Declination
0° 00' 00"
Sunlit
Object was in daylight at epoch
Visualization orbit readout
Latitude
28.3864°
Longitude
65.20343°
Altitude
1,220.992 km
Speed
7.246 km/s
Apparent Right ascension
15h 00m 52s
Apparent Declination
-4° 26' 28"
Sunlit
Object is in full shadow
Visualization observer readout
Local Sidereal Time
22:05:56
Azimuth
277.135° WNW
Elevation
-15.301°
Doppler factor
1
Orbital elements
Apogee altitude
1,216.917 km
Perigee altitude
1,212.661 km
Semi-major axis
7,592.926 km
Eccentricity
0.00028
Inclination
87.8831°
RAAN
91.1493°
Arg. of periapsis
68.3257°
True anomaly
Unknown
Mean anomaly
291.817°
Eccentric anomaly
Unknown
Mean motion
3.28042 °/min
Orbital period
109.74 mins
BSTAR
-0.00020943
Loading maneuver chart data...
Loading SW <> Apogee altitude chart data...
Loading historical data...
Loading historical data...
Loading historical data...
Loading historical data...
Loading historical data...
Loading historical data...
Loading historical data...

ONEWEB-0692 Visibility forecast

Observer location: undefined°, undefined°

Span
Click to sort rows by Start time (UTC) header in descending order
Start Az.
Max El. time (UTC)
Max El. Az.
Max El.
End time (UTC)
End Az.
10 mins2025-07-01 17:08:29.015Z124.781° SE2025-07-01 17:13:29.015Z76.046° E23.804°2025-07-01 17:18:29.015Z28.117° NE
12 mins2025-07-01 18:57:29.015Z202.458° SSW2025-07-01 19:02:29.015Z264.439° W39.367°2025-07-01 19:09:29.015Z350.87° N
8 mins2025-07-02 04:38:29.015Z41.374° NE2025-07-02 04:41:29.015Z70.226° E19.396°2025-07-02 04:46:29.015Z116.867° SE
13 mins2025-07-02 06:26:29.015Z352.836° N2025-07-02 06:32:29.015Z271.613° WNW43.093°2025-07-02 06:39:29.015Z192.403° SSW
|